TimeEDT,TemperatureF,Dew PointF,Humidity,Sea Level PressureIn,VisibilityMPH,Wind Direction,Wind SpeedMPH,Gust SpeedMPH,PrecipitationIn,Events,Conditions,WindDirDegrees,DateUTC
3:53 AM,50.0,46.0,86,30.22,10.0,Calm,Calm,-,N/A,,Clear,0,2013-06-20 07:53:00
4:53 AM,48.0,45.0,89,30.23,10.0,Calm,Calm,-,N/A,,Clear,0,2013-06-20 08:53:00
5:53 AM,48.0,46.0,93,30.25,10.0,Calm,Calm,-,N/A,,Clear,0,2013-06-20 09:53:00
6:53 AM,53.1,48.9,86,30.27,10.0,Calm,Calm,-,N/A,,Clear,0,2013-06-20 10:53:00
7:53 AM,59.0,52.0,78,30.27,10.0,Calm,Calm,-,N/A,,Clear,0,2013-06-20 11:53:00
8:53 AM,64.9,53.1,65,30.27,10.0,Calm,Calm,-,N/A,,Clear,0,2013-06-20 12:53:00
9:53 AM,69.1,55.0,61,30.27,10.0,Calm,Calm,-,N/A,,Clear,0,2013-06-20 13:53:00
10:53 AM,72.0,54.0,53,30.27,10.0,SW,3.5,-,N/A,,Clear,230,2013-06-20 14:53:00
11:53 AM,73.9,48.9,41,30.27,10.0,WSW,6.9,-,N/A,,Clear,240,2013-06-20 15:53:00
12:53 PM,75.0,48.9,40,30.27,10.0,WSW,6.9,-,N/A,,Scattered Clouds,240,2013-06-20 16:53:00
1:53 PM,75.0,50.0,41,30.26,10.0,SW,5.8,-,N/A,,Scattered Clouds,220,2013-06-20 17:53:00
2:53 PM,77.0,50.0,39,30.25,10.0,Variable,5.8,-,N/A,,Mostly Cloudy,0,2013-06-20 18:53:00
3:53 PM,75.9,50.0,40,30.24,10.0,SW,4.6,-,0.00,,Scattered Clouds,220,2013-06-20 19:53:00
4:53 PM,77.0,53.1,43,30.24,10.0,SSW,8.1,-,N/A,,Partly Cloudy,210,2013-06-20 20:53:00
5:53 PM,75.0,55.0,50,30.23,10.0,SSW,5.8,-,N/A,,Clear,200,2013-06-20 21:53:00
6:53 PM,73.9,54.0,50,30.24,10.0,SSW,10.4,-,N/A,,Clear,200,2013-06-20 22:53:00
7:53 PM,71.1,54.0,55,30.25,10.0,South,6.9,-,N/A,,Clear,190,2013-06-20 23:53:00
8:53 PM,66.9,53.1,61,30.25,10.0,South,5.8,-,N/A,,Clear,180,2013-06-21 00:53:00
9:53 PM,64.9,52.0,63,30.26,10.0,South,5.8,-,N/A,,Clear,190,2013-06-21 01:53:00
10:53 PM,63.0,52.0,67,30.27,10.0,SW,4.6,-,N/A,,Clear,230,2013-06-21 02:53:00
11:53 PM,63.0,51.1,65,30.27,10.0,Calm,Calm,-,N/A,,Clear,0,2013-06-21 03:53:00